Flag for U.S.A. Weather past 2 weeks in Plano, Texas, U.S.A.

Now
87 °F

Sunny.


Feels Like: 93 °F
Forecast: 78 / 97 °F
Wind: 10 mph from Southwest

Location: McKinney Municipal Airport

Current Time: Jul 26, 2014 at 10:56:15 AM

Latest Report: Jul 26, 2014 at 9:53 AM


Visibility: 10 mi

Pressure: 29.98 "Hg

Humidity: 59%

Dew point: 71 °F

Location of PlanoLocation

Historic Weather in Plano — Graph

°F

Plano temperature yesterday

Maximum temperature yesterday: 96 °F (at 4:53 PM)
Minimum temperature yesterday: 72 °F (at 4:53 AM)
Average temperature yesterday: 84 °F

Past Weeks' High & Low Weather Summary

 TemperatureHumidityPressure
High99 °F (Jul 13, 4:53 PM)100% (Jul 17, 8:57 AM)30.16 "Hg (Jul 17, 8:57 AM)
Low63 °F (Jul 18, 5:53 AM)25% (Jul 15, 1:53 PM)29.88 "Hg (Jul 16, 7:53 PM)
Average79 °F69%30.00 "Hg
* Reported Jul 11 9:53 AM — Jul 26 9:53 AM, Plano, Weather by CustomWeather, © 2014

Note: Actual official high and low records may vary slightly from our data, if they occured in-between our weather recording intervals... More about our weather records

Advertising

Plano weather history for previous 24 hours

 ConditionsComfort  
Time TempWeatherWind HumidityBarometerVisibility
9:53 AM
Jul 26
87 °FSunny.10 mph59%29.98 "Hg10 mi
8:53 AM83 °FSunny.9 mph70%29.99 "Hg10 mi
7:53 AM78 °FSunny.7 mph82%29.98 "Hg10 mi
6:53 AM74 °FClear.5 mph88%29.97 "Hg9 mi
5:53 AM75 °FClear.3 mph85%29.95 "Hg10 mi
4:53 AM78 °FClear.8 mph76%29.93 "Hg10 mi
3:53 AM79 °FClear.9 mph74%29.92 "Hg10 mi
2:53 AM79 °FClear.7 mph77%29.93 "Hg10 mi
1:53 AM81 °FClear.9 mph72%29.93 "Hg10 mi
12:53 AM82 °FClear.10 mph70%29.94 "Hg10 mi
11:53 PM
Jul 25
84 °FClear.10 mph67%29.94 "Hg10 mi
10:53 PM85 °FClear.10 mph63%29.94 "Hg10 mi
9:53 PM87 °FClear.12 mph59%29.92 "Hg10 mi
8:53 PM89 °FSunny.12 mph55%29.90 "Hg10 mi
7:53 PM92 °FSunny.8 mph47%29.88 "Hg10 mi
6:53 PM95 °FSunny.13 mph41%29.88 "Hg10 mi
5:53 PM96 °FSunny.16 mph40%29.88 "Hg10 mi
4:53 PM96 °FSunny.15 mph43%29.90 "Hg10 mi
3:53 PM95 °FSunny.9 mph43%29.92 "Hg10 mi
2:53 PM95 °FSunny.5 mph44%29.93 "Hg10 mi
1:53 PM94 °FSunny.9 mph46%29.96 "Hg10 mi
12:53 PM92 °FSunny.9 mph47%29.98 "Hg10 mi
11:53 AM90 °FSunny.8 mph54%29.99 "Hg10 mi
10:53 AM86 °FSunny.8 mph61%30.01 "Hg10 mi
Weather by CustomWeather, © 2014

See weather overviewHow to use our weather pages